Regional Weather Roundup
Issued by NWS Little Rock, AR

Current Version | Previous Version | Text Only | Print | Product List | Glossary On
Versions: 1 2 3 4 5 6 7 8 9 10 11 12 13 14 15 16 17 18 19 20 21 22 23 24 25 26 27 28 29 30 31 32 33 34 35 36 37 38 39 40 41 42 43 44 45 46 47 48 49 50
000
ASUS44 KLZK 080005
RWRLZK

WEATHER ROUNDUP FOR ARKANSAS
NATIONAL WEATHER SERVICE LITTLE ROCK AR
600 PM CST SUN FEB 07 2016

NOTE: "FAIR" INDICATES FEW OR NO CLOUDS BELOW 12,000 FEET WITH NO
SIGNIFICANT WEATHER AND/OR OBSTRUCTIONS TO VISIBILITY.

ARZ001-003-010-029-080100-
NORTHWEST ARKANSAS

CITY           SKY/WX    TMP DP  RH WIND       PRES   REMARKS
FAYETTEVILLE   PTCLDY    45  26  47 NW7       30.08R
6HR MIN TEMP:  45; 6HR MAX TEMP:  53;

FORT SMITH     PTCLDY    56  23  27 NW12      30.09R
6HR MIN TEMP:  54; 6HR MAX TEMP:  62;

HARRISON       PTCLDY    49  23  36 NW10G20   30.03R
6HR MIN TEMP:  49; 6HR MAX TEMP:  55;

BENTONVILLE    CLEAR     46  25  42 NW9       30.08R
6HR MIN TEMP:  46; 6HR MAX TEMP:  52;

ROGERS         CLEAR     46  27  47 W8        30.07R
6HR MIN TEMP:  46; 6HR MAX TEMP:  51;

SILOAM SPGS    CLEAR     45  25  45 W6        30.09R
6HR MIN TEMP:  45; 6HR MAX TEMP:  54;

HIGHFILL       CLEAR     46  28  49 NW6       30.07R
6HR MIN TEMP:  46; 6HR MAX TEMP:  53;

SPRINGDALE     PTCLDY   N/A N/A N/A NW6       30.09R
$$

ARZ004-005-016-080100-
NORTH CENTRAL ARKANSAS

CITY           SKY/WX    TMP DP  RH WIND       PRES   REMARKS
BATESVILLE     CLEAR     52  27  37 SW9       30.00S
6HR MIN TEMP:  52; 6HR MAX TEMP:  59;

FLIPPIN        CLOUDY    54  21  28 NW13G22   30.00R
MTN HOME       PTCLDY    52  24  33 NW10G21   30.00R
6HR MIN TEMP:  52; 6HR MAX TEMP:  56;

$$

ARZ040-041-080100-
WEST CENTRAL ARKANSAS

CITY           SKY/WX    TMP DP  RH WIND       PRES   REMARKS
MENA           CLEAR     59  32  36 NW12      30.07R
MOUNT IDA      CLEAR     57  29  34 CALM      30.03R
6HR MIN TEMP:  56; 6HR MAX TEMP:  62;

$$

ARZ009-017-025-026-028-080100-
NORTHEAST ARKANSAS

CITY           SKY/WX    TMP DP  RH WIND       PRES   REMARKS
CORNING        FAIR      52  30  43 W8        29.96S
JONESBORO      PTCLDY    53  28  38 W13       29.97S
6HR MIN TEMP:  52; 6HR MAX TEMP:  56;

NEWPORT        CLEAR     53  28  38 W12       30.00R
6HR MIN TEMP:  53; 6HR MAX TEMP:  62;

WALNUT RIDGE   CLEAR     54  25  32 NW9       29.97S
6HR MIN TEMP:  54; 6HR MAX TEMP:  61;

BLYTHEVILLE    PTCLDY    52  35  52 SW13      29.97F
6HR MIN TEMP:  52; 6HR MAX TEMP:  61;

$$

ARZ022-023-033-042-044-080100-
CENTRAL ARKANSAS

CITY           SKY/WX    TMP DP  RH WIND       PRES   REMARKS
LITTLE ROCK    PTCLDY    55  27  34 W7        30.03F
6HR MIN TEMP:  55; 6HR MAX TEMP:  61;

N LITTLE ROCK  PTCLDY    54  31  40 W5        30.03F
6HR MIN TEMP:  54; 6HR MAX TEMP:  59;

JACKSONVILLE   CLEAR     51  29  43 W8        30.02R
6HR MIN TEMP:  51; 6HR MAX TEMP:  61;

SEARCY         CLEAR     54  30  40 W6        30.03R
6HR MIN TEMP:  54; 6HR MAX TEMP:  60;

HOT SPRINGS    CLEAR     55  30  38 W6        30.04S
6HR MIN TEMP:  55; 6HR MAX TEMP:  60;

RUSSELLVILLE   CLEAR     55  30  38 W8        30.03R
6HR MIN TEMP:  52; 6HR MAX TEMP:  58;

CLINTON        FAIR      54  32  43 CALM      30.02R
$$

ARZ036-080100-
EAST ARKANSAS

CITY           SKY/WX    TMP DP  RH WIND       PRES   REMARKS
WEST MEMPHIS   PTCLDY    53  33  46 SW7       30.00F HAZE
6HR MIN TEMP:  53; 6HR MAX TEMP:  57;

$$

ARZ050-053-066-070-073-080100-
SOUTHWEST ARKANSAS

CITY           SKY/WX    TMP DP  RH WIND       PRES   REMARKS
ARKADELPHIA    FAIR      53  33  46 SW7       30.07R
6HR MIN TEMP:  53; 6HR MAX TEMP:  64;

CAMDEN         CLEAR     55  23  28 SW6       30.07S
TEXARKANA      CLEAR     58  30  34 W7        30.08F
6HR MIN TEMP:  56; 6HR MAX TEMP:  62;

EL DORADO      CLEAR     54  28  36 SW6       30.08S
6HR MIN TEMP:  54; 6HR MAX TEMP:  62;

DE QUEEN       CLEAR     54  34  46 W7        30.07R
6HR MIN TEMP:  54; 6HR MAX TEMP:  62;

$$

ARZ056-057-069-080100-
SOUTHEAST ARKANSAS

CITY           SKY/WX    TMP DP  RH WIND       PRES   REMARKS
PINE BLUFF     CLEAR     56  27  32 W6        30.04S
6HR MIN TEMP:  56; 6HR MAX TEMP:  60;

STUTTGART      PTCLDY    52  32  46 SW8       30.03F
6HR MIN TEMP:  52; 6HR MAX TEMP:  59;

MONTICELLO     CLEAR     56  27  32 SW7       30.05S
6HR MIN TEMP:  56; 6HR MAX TEMP:  63;


$$





USA.gov is the U.S. government's official web portal to all federal, state and local government web resources and services.